Tracking 18945 objects as of 19-Jan-2018
HD Live streaming from Space Station
objects crossing your sky now

FENGYUN 1C DEB

Track FENGYUN 1C DEB now!
10-day predictions


NORAD ID: 31508
Int'l Code: 1999-025BWX
Perigee: 763.5 km
Apogee: 846.1 km
Inclination: 98.8 °
Period: 100.8 minutes
Semi major axis: 7175 km
RCS: 0.0039 m2 (small)
Launch date: May 10, 1999
Source: People's Republic of China (PRC)
Launch site: Taiyaun Space Center, China (TSC)

Note: This is SATELLITE DEBRIS
aabbcc
Your satellite tracking list
Your tracking list is empty




NASA's NSSDC Master Catalog

Two Line Element Set (TLE):
1 31508U 99025BWX 18017.58459270  .00000734  00000-0  30728-3 0  9996
2 31508  98.7969  67.1521 0057582 219.5299 140.1675 14.28220862556154
Source of the keplerian elements: AFSPC